STARLINK-32385 (61068 NORAD) Tracking and Keplerian Element Data

This shows tracking and keplerian element data for the satellite.

Feedback or suggestion? Click here.




ElementValue
Catalog61068
NameSTARLINK-32385
Epoch Orbit594
Epoch Day286.91668981
Epoch Year2024
RAAN321.9654
Inclination53.1594
Eccentricity0.0001276
Argument of Perigee72.5479
Mean Anonmoly232.3326
Mean Motion15.39666112
Decay Rate-0.00060211
L11 61068U 24164U 24286.91668981 -.00060211 00000+0 -15049-2 0 9990
L22 61068 53.1594 321.9654 0001276 72.5479 232.3326 15.39666112 5949



Live tracking and technical data element details for STARLINK-32385 (NORAD 61068). STARLINK-32385 can be tracked NOW for your location showing map with azimuth and elevation plus other details from your city location.







IsCatalogInMostPopularTable: catalog: 61068, numindb: 23
Update: records affected: 1



GetName: 61068 STARLINK-32385

Hit Count: updated at: Wed, 04 Dec 2024 10:30:35 GMT